Location: Bay Shore Mobile Home Park
(38.5762°N, 75.0841°W)
Time: 04:44:26
(UTC+00:00)

Hubble Space Telescope - Pass Details

Date: 25 January 2026
Orbit: 478 x 480 km, 28.5° (Epoch: 8 February)

Event Time Altitude Azimuth Distance (km) Brightness Sun altitude
Rises 22:36:20 0° 218° (SW) 2,508 5.3 -4.8°
Reaches altitude 10° 22:40:03 10° 181° (S) 1,634 3.5 -5.5°
Maximum altitude 22:41:05 11° 164° (SSE) 1,577 3.2 -5.7°
Drops below altitude 10° 22:42:07 10° 148° (SSE) 1,635 3.1 -5.9°
Enters shadow 22:45:31 - 113° (ESE) 2,418 3.7 -6.5°
